AEROCUBE 7C (43043 NORAD) Tracking and Keplerian Element Data

This shows tracking and keplerian element data for the satellite.

Feedback or suggestion? Click here.




ElementValue
Catalog43043
NameAEROCUBE 7C
Epoch Orbit3426
Epoch Day198.64046802
Epoch Year2018
RAAN253.1436
Inclination51.6385
Eccentricity0.0005398
Argument of Perigee21.5805
Mean Anonmoly338.5406
Mean Motion15.39030047
Decay Rate2.325E-05
L11 43043U 17071G 18198.64046802 .00002325 00000-0 69363-4 0 9990
L22 43043 51.6385 253.1436 0005398 21.5805 338.5406 15.39030047 34260

Live tracking and technical data element details for AEROCUBE 7C (NORAD 43043). AEROCUBE 7C can be tracked NOW for your location showing map with azimuth and elevation plus other details from your city location.

Track the satellite on the map from your city or location and see movement details for azimuth, elevation, latitude, longitude, range, height, and movement on the map or in text.







IsCatalogInMostPopularTable: catalog: 43043, numindb: 93
Update: records affected: 1



GetName: 43043 AEROCUBE 7C

Hit Count: updated at: Fri, 20 Jul 2018 20:33:46 GMT